KL-BETA A (49059 NORAD) Tracking and Keplerian Element Data

This shows tracking and keplerian element data for the satellite.

Feedback or suggestion? Click here.




ElementValue
Catalog49059
NameKL-BETA A
Epoch Orbit1177
Epoch Day300.79890407
Epoch Year2021
RAAN44.0321
Inclination89.0006
Eccentricity0.0008364
Argument of Perigee6.6844
Mean Anonmoly353.4447
Mean Motion13.97210226
Decay Rate5E-07
L11 49059U 21070A 21300.79890407 .00000050 00000-0 26314-4 0 9992
L22 49059 89.0006 44.0321 0008364 6.6844 353.4447 13.97210226 11774

Live tracking and technical data element details for KL-BETA A (NORAD 49059). KL-BETA A can be tracked NOW for your location showing map with azimuth and elevation plus other details from your city location.

Track the satellite on the map from your city or location and see movement details for azimuth, elevation, latitude, longitude, range, height, and movement on the map or in text.







IsCatalogInMostPopularTable: catalog: 49059, numindb: 22
Update: records affected: 1



GetName: 49059 KL-BETA A

Hit Count: updated at: Thu, 28 Oct 2021 11:14:45 GMT